Location: McFarlands Corners
(41.4117°N, 81.3382°W)
Time: 04:06:48
(UTC+00:00)

Tiros 1 - Pass Details

Date: 21 February 2026
Orbit: 618 x 649 km, 48.4° (Epoch: 7 March)

Event Time Altitude Azimuth Distance (km) Brightness Sun altitude
Rises 15:57:37 0° 290° (WNW) 2,907 10.1 33.2°
Reaches altitude 10° 16:00:06 10° 299° (WNW) 1,995 9.3 33.4°
Maximum altitude 16:04:19 35° 6° (N) 1,012 8.1 33.8°
Drops below altitude 10° 16:08:30 10° 73° (ENE) 1,982 9.9 34.2°
Sets 16:10:58 0° 82° (E) 2,885 10.7 34.4°
